Location: Unspecified
(0.0000°N, 0.0000°E)
Time: 05:54:49
(UTC+00:00)

STARLINK-33781 - Visible Passes

Search period start: 17 February 2026 00:00
Search period end: 27 February 2026 00:00
Orbit: 481 x 484 km, 43.0° (Epoch: 16 February)

Date Brightness Start Highest point End Pass type
(mag) Time Alt. Az. Time Alt. Az. Time Alt. Az.
19 Feb 5.3 19:39:21 10° NNW 19:40:40 19° N 19:40:40 19° N visible
20 Feb 4.1 19:11:20 10° NNW 19:14:43 32° NE 19:15:25 29° ENE visible
21 Feb 4.2 18:43:15 10° NNW 18:46:35 30° NE 18:49:55 10° ESE visible
21 Feb 6.3 20:23:00 10° W 20:24:36 15° WSW 20:24:36 15° WSW visible
22 Feb 6.1 19:54:40 10° W 19:57:09 17° SW 19:59:26 11° S visible
23 Feb 6.1 19:26:17 10° W 19:28:52 18° SW 19:31:28 10° S visible
24 Feb 5.6 05:32:48 10° SSW 05:36:01 26° SE 05:39:12 10° ENE visible
24 Feb 6.1 18:57:51 10° W 19:00:33 19° SW 19:03:15 10° S visible
25 Feb 5.6 05:04:30 10° SSW 05:07:38 25° SE 05:10:47 10° ENE visible
26 Feb 5.6 04:36:54 14° S 04:39:14 23° SE 04:42:16 10° E visible
